�������l�o���
Date,Time,MP-1(��Sv/h),MP-2(��Sv/h),MP-3(��Sv/h),MP-4(��Sv/h),MP-5(��Sv/h),MP-6(��Sv/h),MP-7(��Sv/h),MP-8(��Sv/h),����,����(m/s),���J
2019/08/11,00:00,0.775,1.111,0.763,1.357,0.999,0.433,0.757,0.712,�k,0.9,��
2019/08/11,00:10,0.775,1.111,0.763,1.354,1.002,0.433,0.755,0.714,�k�k��,2.3,��
2019/08/11,00:20,0.777,1.109,0.763,1.354,1.002,0.433,0.756,0.712,�k�k��,2.3,��
2019/08/11,00:30,0.776,1.109,0.761,1.357,1.000,0.432,0.755,0.713,�k�k��,2.3,��
2019/08/11,00:40,0.774,1.107,0.763,1.353,1.003,0.433,0.754,0.713,�k�k��,2.0,��
2019/08/11,00:50,0.776,1.111,0.762,1.356,0.999,0.431,0.754,0.712,�k,1.2,��
2019/08/11,01:00,0.775,1.109,0.763,1.354,1.001,0.433,0.756,0.713,�k�k��,2.3,��
2019/08/11,01:10,0.777,1.109,0.765,1.355,1.004,0.433,0.756,0.711,�k�k��,1.7,��
2019/08/11,01:20,0.775,1.111,0.762,1.355,1.001,0.434,0.756,0.713,�k�k��,2.2,��
2019/08/11,01:30,0.774,1.112,0.763,1.356,1.004,0.433,0.757,0.714,�k�k��,2.5,��
2019/08/11,01:40,0.777,1.111,0.762,1.354,1.001,0.433,0.756,0.713,�k�k��,3.2,��
2019/08/11,01:50,0.775,1.111,0.763,1.355,1.001,0.434,0.756,0.714,�k�k��,3.3,��
2019/08/11,02:00,0.777,1.110,0.764,1.355,1.003,0.434,0.757,0.713,�k�k��,4.6,��
2019/08/11,02:10,0.774,1.110,0.763,1.355,1.004,0.432,0.757,0.715,�k�k��,4.9,��
2019/08/11,02:20,0.776,1.109,0.761,1.357,1.002,0.433,0.756,0.713,�k,2.6,��
2019/08/11,02:30,0.777,1.111,0.763,1.354,1.001,0.432,0.756,0.714,�k,3.5,��
2019/08/11,02:40,0.778,1.109,0.762,1.354,1.002,0.431,0.755,0.713,�k,5.2,�L
2019/08/11,02:50,0.774,1.110,0.763,1.353,1.001,0.434,0.757,0.712,�k,5.5,��
2019/08/11,03:00,0.775,1.109,0.764,1.356,1.001,0.432,0.757,0.713,�k,7.1,��
2019/08/11,03:10,0.777,1.106,0.764,1.356,1.001,0.433,0.756,0.713,�k�k��,5.3,��
2019/08/11,03:20,0.778,1.110,0.763,1.357,1.004,0.433,0.755,0.713,�k�k��,5.1,�L
2019/08/11,03:30,0.775,1.110,0.763,1.355,1.002,0.432,0.755,0.713,�k�k��,5.2,�L
2019/08/11,03:40,0.774,1.111,0.763,1.355,1.002,0.431,0.754,0.714,�k�k��,4.9,��
2019/08/11,03:50,0.776,1.111,0.762,1.354,1.003,0.431,0.756,0.713,�k�k��,4.6,��
2019/08/11,04:00,0.774,1.111,0.764,1.355,1.002,0.431,0.754,0.714,�k�k��,4.3,��
2019/08/11,04:10,0.775,1.107,0.765,1.353,1.001,0.431,0.755,0.713,�k�k��,4.5,��
2019/08/11,04:20,0.775,1.109,0.764,1.355,1.000,0.432,0.755,0.714,�k�k��,3.9,��
2019/08/11,04:30,0.773,1.108,0.763,1.355,1.000,0.432,0.756,0.713,�k,4.5,�L
2019/08/11,04:40,0.773,1.109,0.762,1.353,1.000,0.431,0.754,0.715,�k,6.3,�L
2019/08/11,04:50,0.776,1.108,0.761,1.355,1.001,0.431,0.755,0.713,�k,5.8,��
2019/08/11,05:00,0.774,1.109,0.765,1.355,1.001,0.431,0.755,0.713,�k,5.3,�L
2019/08/11,05:10,0.773,1.109,0.762,1.353,1.002,0.430,0.754,0.713,�k�k��,5.8,��
2019/08/11,05:20,0.774,1.107,0.763,1.352,1.001,0.432,0.755,0.711,�k,5.5,��
2019/08/11,05:30,0.772,1.106,0.763,1.355,1.002,0.430,0.755,0.714,�k,5.6,�L
2019/08/11,05:40,0.773,1.106,0.762,1.353,1.001,0.431,0.753,0.713,�k,4.6,�L
2019/08/11,05:50,0.771,1.104,0.762,1.352,1.001,0.431,0.755,0.712,�k,4.6,�L
2019/08/11,06:00,0.774,1.106,0.762,1.353,0.999,0.430,0.754,0.713,�k�k��,5.0,��
2019/08/11,06:10,0.775,1.105,0.762,1.352,1.000,0.430,0.754,0.711,�k�k��,4.9,��
2019/08/11,06:20,0.773,1.106,0.762,1.355,0.999,0.430,0.753,0.713,�k�k��,4.7,��
2019/08/11,06:30,0.773,1.105,0.762,1.355,1.000,0.429,0.756,0.712,�k�k��,4.9,��
2019/08/11,06:40,0.773,1.107,0.763,1.354,1.001,0.430,0.755,0.713,�k�k��,4.1,��
2019/08/11,06:50,0.774,1.107,0.763,1.354,1.000,0.432,0.754,0.713,�k�k��,3.8,��
2019/08/11,07:00,0.772,1.105,0.762,1.355,1.001,0.430,0.757,0.712,�k�k��,4.6,��
2019/08/11,07:10,0.773,1.106,0.763,1.352,1.001,0.430,0.752,0.711,�k�k��,4.8,��
2019/08/11,07:20,0.771,1.106,0.761,1.353,1.000,0.430,0.753,0.712,�k�k��,4.8,��
2019/08/11,07:30,0.773,1.107,0.761,1.354,1.000,0.430,0.755,0.714,�k�k��,4.3,��
2019/08/11,07:40,0.772,1.105,0.763,1.353,1.000,0.430,0.755,0.713,�k�k��,5.2,��
2019/08/11,07:50,0.774,1.106,0.762,1.355,0.999,0.431,0.755,0.712,�k�k��,5.3,��
2019/08/11,08:00,0.773,1.107,0.762,1.352,1.001,0.430,0.755,0.713,�k�k��,5.3,��
2019/08/11,08:10,0.772,1.106,0.760,1.352,1.000,0.429,0.755,0.712,�k�k��,5.0,��
2019/08/11,08:20,0.772,1.104,0.761,1.352,0.999,0.431,0.753,0.711,�k�k��,4.9,��
2019/08/11,08:30,0.773,1.106,0.760,1.355,0.995,0.430,0.754,0.711,�k�k��,4.8,��
2019/08/11,08:40,0.773,1.106,0.762,1.354,0.998,0.431,0.754,0.711,�k�k��,4.9,��
2019/08/11,08:50,0.774,1.105,0.762,1.352,1.000,0.430,0.756,0.711,�k�k��,5.1,��
2019/08/11,09:00,0.771,1.105,0.761,1.355,1.000,0.430,0.753,0.713,�k�k��,5.1,��
2019/08/11,09:10,0.775,1.104,0.762,1.352,1.000,0.430,0.751,0.712,�k�k��,5.3,��
2019/08/11,09:20,0.773,1.106,0.761,1.354,0.996,0.430,0.754,0.712,�k,5.0,��
2019/08/11,09:30,0.772,1.105,0.761,1.355,1.000,0.431,0.754,0.712,�k�k��,4.5,��
2019/08/11,09:40,0.773,1.106,0.761,1.353,1.000,0.430,0.754,0.711,�k�k��,4.0,��
2019/08/11,09:50,0.774,1.104,0.762,1.354,0.999,0.430,0.754,0.710,�k�k��,4.1,��
2019/08/11,10:00,0.773,1.105,0.761,1.355,0.998,0.430,0.755,0.710,�k,4.2,��
2019/08/11,10:10,0.773,1.105,0.762,1.354,0.999,0.430,0.754,0.709,�k,3.4,��
2019/08/11,10:20,0.773,1.103,0.762,1.352,0.998,0.431,0.753,0.709,�k�k��,3.2,��
2019/08/11,10:30,0.773,1.108,0.760,1.355,1.000,0.429,0.754,0.710,�k,3.5,��
2019/08/11,10:40,0.772,1.106,0.760,1.353,1.001,0.431,0.754,0.710,�k,3.5,��
2019/08/11,10:50,0.773,1.106,0.762,1.353,1.000,0.431,0.755,0.709,�k�k��,3.4,��
2019/08/11,11:00,0.773,1.107,0.762,1.354,0.999,0.431,0.755,0.710,�k,3.4,��
2019/08/11,11:10,0.773,1.107,0.760,1.353,1.000,0.430,0.756,0.710,�k,3.8,��
2019/08/11,11:20,0.775,1.105,0.762,1.354,0.998,0.431,0.754,0.711,�k,3.4,�L
2019/08/11,11:30,0.774,1.106,0.761,1.354,1.001,0.431,0.753,0.710,�k,3.4,��
2019/08/11,11:40,0.774,1.108,0.760,1.353,1.000,0.431,0.753,0.711,�k�k��,3.7,�L
2019/08/11,11:50,0.774,1.107,0.760,1.354,1.002,0.430,0.753,0.710,�k,3.7,��
2019/08/11,12:00,0.774,1.105,0.762,1.356,1.002,0.431,0.753,0.709,�k,3.3,�L
2019/08/11,12:10,0.775,1.106,0.763,1.356,1.002,0.429,0.754,0.709,�k�k��,3.6,�L
2019/08/11,12:20,0.773,1.108,0.760,1.355,1.001,0.431,0.754,0.709,�k,4.3,��
2019/08/11,12:30,0.774,1.106,0.764,1.356,0.999,0.432,0.754,0.710,�k,3.2,��
2019/08/11,12:40,0.775,1.107,0.762,1.354,1.001,0.430,0.751,0.710,�k,3.6,��
2019/08/11,12:50,0.774,1.109,0.762,1.352,1.000,0.429,0.754,0.711,�k,3.3,��
2019/08/11,13:00,0.775,1.108,0.763,1.356,1.001,0.431,0.756,0.710,�k�k��,3.3,��
2019/08/11,13:10,0.774,1.108,0.763,1.351,1.002,0.431,0.755,0.710,�k,3.9,�L
2019/08/11,13:20,0.773,1.108,0.763,1.356,1.001,0.430,0.755,0.710,�k,3.5,�L
2019/08/11,13:30,0.773,1.106,0.761,1.355,1.000,0.430,0.755,0.711,�k,3.5,�L
2019/08/11,13:40,0.774,1.105,0.762,1.353,1.000,0.430,0.756,0.711,�k,3.5,��
2019/08/11,13:50,0.773,1.106,0.761,1.354,1.000,0.431,0.756,0.711,�k,2.5,��
2019/08/11,14:00,0.772,1.107,0.762,1.354,1.000,0.431,0.755,0.711,�k,2.8,�L
2019/08/11,14:10,0.774,1.107,0.761,1.355,0.999,0.430,0.755,0.713,�k,3.0,�L
2019/08/11,14:20,0.773,1.103,0.762,1.354,0.999,0.430,0.756,0.712,�k,3.9,�L
2019/08/11,14:30,0.772,1.102,0.761,1.355,1.001,0.430,0.756,0.713,�k�k��,3.3,�L
2019/08/11,14:40,0.772,1.101,0.762,1.356,0.998,0.430,0.756,0.713,�k�k��,2.6,�L
2019/08/11,14:50,0.772,1.103,0.760,1.354,0.997,0.429,0.756,0.712,�k�k��,2.8,�L
2019/08/11,15:00,0.771,1.100,0.760,1.354,1.000,0.430,0.754,0.713,�k�k��,2.6,��
2019/08/11,15:10,0.771,1.100,0.762,1.354,0.999,0.429,0.757,0.713,�k�k��,2.9,�L
2019/08/11,15:20,0.771,1.101,0.759,1.355,0.999,0.430,0.756,0.712,�k�k��,2.9,�L
2019/08/11,15:30,0.771,1.099,0.758,1.352,1.000,0.430,0.755,0.712,�k,2.9,�L
2019/08/11,15:40,0.766,1.093,0.757,1.350,0.992,0.431,0.753,0.712,�k,2.0,�L
2019/08/11,15:50,0.766,1.089,0.756,1.349,0.991,0.428,0.754,0.710,�k�k��,2.3,�L
2019/08/11,16:00,0.766,1.087,0.756,1.348,0.991,0.430,0.756,0.711,�k�k��,2.5,�L
2019/08/11,16:10,0.765,1.089,0.753,1.345,0.989,0.430,0.754,0.711,�k�k��,2.0,�L
2019/08/11,16:20,0.765,1.086,0.754,1.345,0.986,0.429,0.753,0.710,�k,1.7,�L
2019/08/11,16:30,0.765,1.084,0.752,1.345,0.987,0.430,0.754,0.708,�k�k��,1.2,�L
2019/08/11,16:40,0.763,1.086,0.755,1.346,0.984,0.430,0.751,0.708,�k�k��,1.2,�L
2019/08/11,16:50,0.764,1.086,0.752,1.342,0.987,0.429,0.751,0.712,�k�k��,0.8,�L
2019/08/11,17:00,0.764,1.086,0.752,1.343,0.987,0.429,0.752,0.711,�k��,1.5,��
2019/08/11,17:10,0.766,1.085,0.753,1.343,0.987,0.428,0.752,0.711,���k��,2.2,��
2019/08/11,17:20,0.766,1.087,0.753,1.343,0.985,0.428,0.751,0.710,���k��,2.6,��
2019/08/11,17:30,0.765,1.088,0.753,1.342,0.985,0.428,0.751,0.710,���k��,4.1,��
2019/08/11,17:40,0.767,1.088,0.753,1.346,0.985,0.428,0.752,0.707,���k��,3.6,��
2019/08/11,17:50,0.767,1.086,0.752,1.345,0.984,0.430,0.751,0.711,���k��,3.1,��
2019/08/11,18:00,0.766,1.084,0.753,1.345,0.984,0.430,0.751,0.710,���k��,2.2,��
2019/08/11,18:10,0.766,1.086,0.754,1.345,0.985,0.429,0.752,0.712,���k��,2.2,��
2019/08/11,18:20,0.765,1.086,0.756,1.343,0.985,0.428,0.752,0.711,���k��,2.3,��
2019/08/11,18:30,0.763,1.087,0.755,1.343,0.985,0.428,0.753,0.710,���k��,2.9,��
2019/08/11,18:40,0.763,1.086,0.752,1.344,0.983,0.428,0.752,0.708,���k��,2.5,��
2019/08/11,18:50,0.764,1.086,0.752,1.344,0.984,0.428,0.752,0.710,���k��,2.3,��
2019/08/11,19:00,0.765,1.087,0.754,1.342,0.984,0.428,0.752,0.710,���k��,2.3,��
2019/08/11,19:10,0.764,1.086,0.754,1.343,0.985,0.430,0.754,0.709,���k��,2.5,��
2019/08/11,19:20,0.764,1.087,0.753,1.345,0.986,0.429,0.753,0.709,���k��,2.3,��
2019/08/11,19:30,0.765,1.085,0.754,1.342,0.986,0.429,0.752,0.711,���k��,1.7,��
2019/08/11,19:40,0.766,1.088,0.754,1.343,0.986,0.430,0.752,0.710,���k��,1.5,��
2019/08/11,19:50,0.764,1.085,0.754,1.343,0.984,0.430,0.754,0.710,���k��,1.7,��
2019/08/11,20:00,0.767,1.089,0.753,1.343,0.983,0.430,0.752,0.709,���k��,1.1,��
2019/08/11,20:10,0.767,1.088,0.753,1.342,0.981,0.429,0.751,0.711,���k��,1.4,��
2019/08/11,20:20,0.762,1.088,0.754,1.342,0.985,0.428,0.751,0.710,�k��,1.5,��
2019/08/11,20:30,0.765,1.088,0.754,1.343,0.984,0.430,0.752,0.709,�k��,1.9,��
2019/08/11,20:40,0.765,1.087,0.752,1.346,0.986,0.428,0.752,0.711,�k��,1.7,��
2019/08/11,20:50,0.765,1.088,0.753,1.344,0.986,0.430,0.752,0.709,�k�k��,1.7,��
2019/08/11,21:00,0.765,1.087,0.753,1.343,0.987,0.429,0.753,0.710,�k�k��,2.2,��
2019/08/11,21:10,0.766,1.088,0.756,1.344,0.986,0.429,0.751,0.711,�k�k��,2.3,��
2019/08/11,21:20,0.766,1.088,0.752,1.343,0.985,0.430,0.752,0.709,�k,2.5,�L
2019/08/11,21:30,0.769,1.089,0.755,1.343,0.986,0.430,0.753,0.710,�k,2.6,�L
2019/08/11,21:40,0.767,1.090,0.753,1.343,0.983,0.430,0.752,0.710,�k,2.5,�L
2019/08/11,21:50,0.765,1.088,0.753,1.343,0.986,0.429,0.751,0.708,�k�k��,2.2,�L
2019/08/11,22:00,0.766,1.088,0.754,1.346,0.985,0.429,0.752,0.710,�k�k��,2.3,�L
2019/08/11,22:10,0.764,1.088,0.755,1.342,0.984,0.430,0.754,0.709,�k,1.9,�L
2019/08/11,22:20,0.765,1.086,0.752,1.342,0.985,0.430,0.751,0.709,�k,2.0,�L
2019/08/11,22:30,0.766,1.087,0.751,1.344,0.982,0.430,0.752,0.710,�k�k��,2.5,�L
2019/08/11,22:40,0.764,1.087,0.753,1.343,0.983,0.429,0.753,0.710,�k�k��,2.9,�L
2019/08/11,22:50,0.766,1.084,0.755,1.345,0.982,0.430,0.754,0.710,�k�k��,3.3,�L
2019/08/11,23:00,0.764,1.085,0.754,1.342,0.984,0.429,0.751,0.709,�k�k��,3.2,�L
2019/08/11,23:10,0.765,1.084,0.753,1.346,0.983,0.429,0.751,0.710,�k�k��,3.3,�L
2019/08/11,23:20,0.764,1.084,0.752,1.343,0.984,0.429,0.750,0.709,�k��,3.7,�L
2019/08/11,23:30,0.763,1.083,0.752,1.342,0.981,0.431,0.751,0.709,�k�k��,3.3,�L
2019/08/11,23:40,0.764,1.085,0.753,1.341,0.981,0.430,0.751,0.710,�k�k��,3.1,��
2019/08/11,23:50,0.762,1.085,0.752,1.342,0.982,0.429,0.751,0.710,�k��,3.5,��
